TimeCST,TemperatureF,Dew PointF,Humidity,Sea Level PressureIn,VisibilityMPH,Wind Direction,Wind SpeedMPH,Gust SpeedMPH,PrecipitationIn,Events,Conditions,WindDirDegrees,DateUTC
12:56 AM,63.9,63.0,97,29.80,7.0,WNW,8.1,-,0.00,Rain,Light Rain,290,2013-12-05 06:56:00
1:47 AM,62.6,62.6,100,29.81,2.5,West,4.6,-,0.11,Rain,Heavy Rain,260,2013-12-05 07:47:00
1:56 AM,63.0,63.0,100,29.81,1.0,WNW,6.9,-,0.30,Rain,Heavy Rain,290,2013-12-05 07:56:00
2:06 AM,62.6,62.6,100,29.81,1.5,WSW,13.8,17.3,0.04,Rain,Light Rain,240,2013-12-05 08:06:00
2:11 AM,62.6,62.6,100,29.81,3.0,WSW,10.4,-,0.05,Rain,Rain,240,2013-12-05 08:11:00
2:25 AM,62.6,62.6,100,29.82,6.0,SW,10.4,-,0.05,Rain,Light Rain,230,2013-12-05 08:25:00
2:56 AM,61.9,61.9,100,29.81,4.0,West,9.2,-,0.08,Rain,Light Rain,260,2013-12-05 08:56:00
3:04 AM,59.0,59.0,100,29.83,6.0,NW,12.7,23.0,0.00,Rain,Light Rain,310,2013-12-05 09:04:00
3:08 AM,57.2,57.2,100,29.83,7.0,NW,11.5,23.0,0.00,Rain,Light Rain,320,2013-12-05 09:08:00
3:15 AM,55.4,55.4,100,29.84,9.0,NW,16.1,-,0.00,Rain,Light Rain,320,2013-12-05 09:15:00
3:56 AM,52.9,52.0,97,29.85,9.0,NW,11.5,-,0.00,,Overcast,320,2013-12-05 09:56:00
4:39 AM,51.8,51.8,100,29.88,6.0,NW,13.8,-,N/A,Thunderstorm,Overcast,320,2013-12-05 10:39:00
4:48 AM,51.8,51.8,100,29.88,6.0,NW,15.0,-,0.00,Rain,Light Rain,320,2013-12-05 10:48:00
4:56 AM,50.0,50.0,100,29.89,4.0,NNW,15.0,-,0.01,Rain,Light Rain,330,2013-12-05 10:56:00
5:56 AM,47.8,46.9,97,29.93,6.0,NNW,11.5,-,0.00,Rain,Light Rain,330,2013-12-05 11:56:00
6:15 AM,46.4,46.4,100,29.94,7.0,NNW,13.8,23.0,0.00,Rain,Light Rain,330,2013-12-05 12:15:00
6:56 AM,45.0,43.0,93,29.95,6.0,NW,11.5,18.4,0.02,Rain,Light Rain,320,2013-12-05 12:56:00
7:35 AM,44.6,41.0,87,29.99,6.0,NNW,13.8,20.7,0.01,Rain,Light Rain,330,2013-12-05 13:35:00
7:56 AM,41.9,39.9,93,29.99,3.0,NW,12.7,18.4,0.03,Rain,Heavy Rain,320,2013-12-05 13:56:00
8:13 AM,41.0,39.2,93,30.01,1.8,NW,9.2,-,0.03,Rain,Heavy Rain,320,2013-12-05 14:13:00
8:22 AM,41.0,41.0,100,30.03,2.5,WNW,8.1,-,0.05,Rain,Rain,300,2013-12-05 14:22:00
8:43 AM,41.0,39.2,93,30.03,5.0,NW,11.5,-,0.06,Rain,Light Rain,310,2013-12-05 14:43:00
8:56 AM,41.0,39.9,96,30.04,5.0,NW,9.2,-,0.06,Rain,Light Rain,310,2013-12-05 14:56:00
9:56 AM,39.9,37.9,93,30.08,7.0,NW,16.1,-,0.00,,Overcast,310,2013-12-05 15:56:00
10:05 AM,39.2,37.4,93,30.08,7.0,NW,13.8,20.7,0.00,Rain,Light Rain,310,2013-12-05 16:05:00
10:56 AM,37.9,34.9,89,30.09,8.0,NW,16.1,-,0.00,,Overcast,320,2013-12-05 16:56:00
11:56 AM,36.9,32.9,86,30.05,8.0,NNW,11.5,-,0.00,,Overcast,340,2013-12-05 17:56:00
12:23 PM,37.4,33.8,87,30.05,8.0,NNW,12.7,-,N/A,,Overcast,330,2013-12-05 18:23:00
12:56 PM,36.9,32.0,83,30.06,8.0,NNW,12.7,-,0.00,,Overcast,330,2013-12-05 18:56:00
1:56 PM,36.0,32.0,86,30.09,8.0,NW,16.1,-,N/A,,Overcast,320,2013-12-05 19:56:00
2:56 PM,32.9,31.1,93,30.12,10.0,North,9.2,-,0.00,,Overcast,350,2013-12-05 20:56:00
3:56 PM,32.9,31.1,93,30.13,8.0,North,12.7,-,0.00,Rain,Light Rain,350,2013-12-05 21:56:00
4:56 PM,32.0,30.0,92,30.13,10.0,North,9.2,-,0.00,,Overcast,350,2013-12-05 22:56:00
5:56 PM,32.0,29.1,89,30.15,10.0,North,10.4,-,0.00,Rain,Light Rain,350,2013-12-05 23:56:00
6:56 PM,32.0,31.1,96,30.19,7.0,NNW,11.5,-,0.00,,Overcast,330,2013-12-06 00:56:00
6:58 PM,32.0,30.2,93,30.18,8.0,NNW,12.7,-,N/A,,Overcast,330,2013-12-06 00:58:00
7:56 PM,30.0,28.0,92,30.17,7.0,NNE,12.7,-,0.00,,Freezing Rain,20,2013-12-06 01:56:00
8:56 PM,31.1,29.1,92,30.22,8.0,North,10.4,-,0.00,,Overcast,350,2013-12-06 02:56:00
9:56 PM,30.0,28.0,92,30.20,7.0,North,8.1,-,0.00,,Light Freezing Drizzle,350,2013-12-06 03:56:00
10:03 PM,30.2,28.4,93,30.17,10.0,North,10.4,-,0.00,,Overcast,360,2013-12-06 04:03:00
10:56 PM,29.1,28.0,96,30.22,5.0,North,10.4,-,0.00,,Overcast,10,2013-12-06 04:56:00
11:01 PM,28.4,28.4,100,30.20,4.0,North,11.5,-,0.00,,Overcast,360,2013-12-06 05:01:00
11:13 PM,28.4,28.4,100,30.18,3.0,NNE,9.2,-,0.00,,Overcast,20,2013-12-06 05:13:00
11:21 PM,28.4,28.4,100,30.18,4.0,North,8.1,-,0.00,,Overcast,360,2013-12-06 05:21:00
11:56 PM,29.1,28.0,96,30.19,8.0,North,9.2,-,0.00,,Overcast,10,2013-12-06 05:56:00